Regional Weather Roundup
Issued by NWS Northern Indiana

Current Version | Previous Version | Text Only | Print | Product List | Glossary On
Versions: 1 2 3 4 5 6 7 8 9 10 11 12 13 14 15 16 17 18 19 20 21 22 23 24 25 26 27 28 29 30 31 32 33 34 35 36 37 38 39 40 41 42 43 44 45 46 47 48 49 50
000
ASUS43 KIWX 222310
RWRIWX

KIWX WEATHER ROUNDUP
NATIONAL WEATHER SERVICE NORTHERN INDIANA
600 PM EST THU FEB 22 2018

NOTE: "FAIR" INDICATES FEW OR NO CLOUDS BELOW 12,000 FEET WITH NO
SIGNIFICANT WEATHER AND/OR OBSTRUCTIONS TO VISIBILITY.

* THESE STATIONS ARE NOT UNDER NWS QUALITY CONTROL. THEY ALSO MAY NOT
  REPORT WEATHER SUCH AS PRECIPITATION OR FOG.

INZ001>027-230000-
NORTHERN INDIANA

CITY           SKY/WX    TMP DP  RH WIND       PRES   REMARKS
GARY*          MOCLDY    41  34  75 E10       30.37S
VALPARAISO     CLOUDY    43  35  73 E18G26    30.37F
MICHIGAN CITY* MOCLDY    41  34  75 E13G18    30.39F
LAPORTE*       MOCLDY    41  34  77 E14G23    30.40F
SOUTH BEND     MOCLDY    40  32  73 E12       30.42F
ELKHART*       FAIR      41  32  70 E12       30.44S
GOSHEN         CLOUDY    39  33  79 E12       30.45R
MONTICELLO*    CLOUDY    43  38  85 E10G16    30.37F
LOGANSPORT*    CLOUDY    41  37  87 E13       30.40S
ROCHESTER*     CLOUDY    43  37  81 E14       30.42R
WARSAW*        CLOUDY    37  34  87 MISG      30.43R
AUBURN*        CLOUDY    36  34  93 E14       30.45S
FORT WAYNE     CLOUDY    38  35  89 E18G24    30.44R
HUNTINGTON*    CLOUDY    37  36  94 E10G17    30.43R
PERU/GRISSOM   CLOUDY    41  41 100 E15       30.39R
MARION*        CLOUDY    40  37  90 NE12      30.40R FOG

$$
INZ028>050-230000-
CENTRAL INDIANA

CITY           SKY/WX    TMP DP  RH WIND       PRES   REMARKS
LAFAYETTE      CLOUDY    45  41  86 E13       30.35F
KOKOMO*        CLOUDY    41  39  93 E14       30.39R
MUNCIE*        CLOUDY    47  41  80 E10       30.38R
INDIANAPOLIS   DRIZZLE   44  41  89 E13       30.36R

$$
MIZ043>046-050>051-056>058-064>065-071>073-077>080-230000-
SOUTHWEST LOWER MICHIGAN

CITY           SKY/WX    TMP DP  RH WIND       PRES   REMARKS
BATTLE CREEK   FAIR      41  27  57 E12       30.47S
BENTON HARBOR  FAIR      41  30  65 E13G23    30.42F
COLDWATER*     FAIR      39  32  76 E12G17    30.46S
HILLSDALE*     FAIR      36  30  80 E12G18    30.45F
HOLLAND        CLOUDY    39  28  64 E14G21    30.46F
GRAND RAPIDS   MOCLDY    38  28  67 E17       30.48F
KALAMAZOO      FAIR      41  28  60 VRB7      30.46F
STURGIS*       CLOUDY    40  34  79 E13       30.44S
THREE RIVERS*  FAIR      41  32  70 E9        30.46S

$$
OHZ001>008-015>018-024>025-230000-
NORTHWEST OHIO

CITY           SKY/WX    TMP DP  RH WIND       PRES   REMARKS
WAUSEON*       CLOUDY    36  36 100 E15G21    30.47F
DEFIANCE       CLOUDY    35  31  85 E10       30.47R WCI  27
FINDLAY        CLOUDY    35  30  82 NE17G24   30.44F WCI  25
TOLEDO EXPRESS CLOUDY    35  30  82 NE15      30.49F WCI  25
TOLEDO METCALF CLOUDY    34  28  79 E10G18    30.51F WCI  26
LIMA           CLOUDY    36  36 100 NE12      30.42S

$$
AND FOR LAKE MICHIGAN COASTAL AND OPEN LAKE BUOY OBSERVATIONS

STATION/POSITION TEMP    WIND        PRES    VSBY  WAVE
                 AIR SEA DIR/SP/G                  HT/PER
                 (F)     (DEG/KT/KT) (MB)    (MI)  (FT/S)
CALUMET HARBOR    36      40/  8/ 13 1028.6F
MICHIGAN CITY     42      90/ 12/ 15   N/A
BURNS HARBOR      42     110/ 19/ 23 1028.8F
SAINT JOSEPH      41      70/  4/  9 1030.5

$$
&&



USA.gov is the U.S. government's official web portal to all federal, state and local government web resources and services.